Location: Melbourne
(37.8666°S, 145.1333°E)
Time: 11:45:04
(UTC+11:00)

Iridium 72 - Visible Passes

Search period start: 27 March 2017 00:00
Search period end: 05 April 2017 23:00
Orbit: 776 x 779 km, 86.4° (Epoch: 25 March)

Date Brightness Start Highest point End Pass type
(mag) Time Alt. Az. Time Alt. Az. Time Alt. Az.
27 Mar 5.6 05:53:11 10° S 05:58:31 81° E 06:03:45 10° N visible
28 Mar 6.7 05:19:54 10° SSE 05:24:56 42° E 05:29:53 10° NNE visible
28 Mar 6.8 07:01:31 10° SW 07:05:15 20° W 07:08:59 10° NW visible
29 Mar 7.8 04:47:02 10° SSE 04:51:12 23° ESE 04:55:20 10° NE visible
29 Mar 6.0 06:27:10 10° SSW 06:32:00 37° W 06:36:46 10° NNW visible
30 Mar 8.5 04:15:14 10° SE 04:17:21 12° ESE 04:19:28 10° E visible
30 Mar 5.4 05:53:20 10° S 05:58:36 70° W 06:03:48 10° N visible
31 Mar 5.9 05:19:50 10° S 05:25:06 63° E 05:30:17 10° NNE visible
31 Mar 7.2 07:02:39 10° SW 07:05:10 14° WSW 07:07:40 10° WNW visible
01 Apr 7.1 04:46:41 10° SSE 04:51:27 33° E 04:56:10 10° NE visible
01 Apr 6.5 06:27:41 10° SSW 06:31:58 25° W 06:36:12 10° NW visible
02 Apr 8.0 03:14:06 10° SE 03:17:41 18° ESE 03:21:15 10° ENE visible
02 Apr 5.7 04:53:36 10° SSW 04:58:40 47° W 05:03:39 10° NNW visible
03 Apr 5.4 04:19:54 10° S 04:25:13 89° W 04:26:23 56° N visible
04 Apr 6.5 03:46:32 10° S 03:50:59 46° ESE 03:50:59 46° ESE visible
04 Apr 7.0 05:28:30 10° SW 05:31:20 17° WSW 05:31:20 17° WSW visible
05 Apr 7.7 03:13:34 10° SSE 03:16:09 22° SE 03:16:09 22° SE visible
05 Apr 6.8 04:54:01 10° SSW 04:56:32 24° SW 04:56:32 24° SW visible
